Location: Catstown
(52.4386°N, 7.2633°W)
Time: 12:30:22
(UTC+00:00)

SPOT 5 - Pass Details

Date: 18 September 2020
Orbit: 623 x 815 km, 98.3° (Epoch: 26 October)

Event Time Altitude Azimuth Distance (km) Brightness Sun altitude
Exits shadow 20:40:11 24° 74° (ENE) 1,613 4.3 -18.9°
Maximum altitude 20:41:07 25° 57° (ENE) 1,570 4.3 -19.0°
Drops below altitude 10° 20:45:21 10° 4° (N) 2,401 5.9 -19.6°
Sets 20:48:06 0° 352° (N) 3,349 6.9 -19.9°
